Location: Colebrook
(42.0017°N, 73.0973°W)
Time: 19:07:33
(UTC-04:00)

Amateur Radio Satellites - All Passes

Search period start: 02 July 2015 18:37
Search period end: 03 July 2015 18:37
Location: Colebrook, 42.0017°N, 73.0973°W

Satellite Date Start Highest point End Downlink Frequencies (MHz)
Time Altitude Azimuth
CUBESAT XI-V 02 Jul 18:45:37 18:50:06 43° 97° (E) 18:54:32 437.345
DANDE 02 Jul 18:46:46 18:47:29 11° 64° (ENE) 18:48:19 436.750
STRAND 1 02 Jul 18:48:53 18:52:01 17° 90° (E) 18:55:21 437.568
CUTE-I 02 Jul 18:49:12 18:54:26 52° 260° (W) 18:59:42 437.470
Cosmos 2504 02 Jul 18:51:40 18:58:19 32° 273° (W) 19:05:08 435.465 / 435.565
AIST 2 02 Jul 19:05:37 19:08:49 21° 247° (WSW) 19:11:54 435.215
GOMX 1 02 Jul 19:07:16 19:10:41 19° 66° (ENE) 19:14:08 467.674
BRITE-PL 02 Jul 19:19:03 19:24:06 39° 71° (ENE) 19:28:57 437.365/2234.400
Cubesat XI-IV 02 Jul 19:23:46 19:28:16 26° 267° (W) 19:32:40 437.490
SO-50 02 Jul 19:33:58 19:37:03 16° 324° (NW) 19:40:04 436.795
HO-68 02 Jul 19:34:20 19:40:34 35° 63° (ENE) 19:46:56 435.675
CUSAT 1 02 Jul 19:38:44 19:41:26 58° 261° (W) 19:43:58 437.405
GONETS M04 02 Jul 19:39:27 19:47:08 35° 69° (ENE) 19:54:56
COMPASS 1 02 Jul 19:43:35 19:45:08 12° 64° (ENE) 19:46:54 437.405
CUTE 1.7 + AOD 2 02 Jul 19:45:08 19:48:07 20° 67° (ENE) 19:51:12 437.475
CANX-2 02 Jul 19:47:49 19:51:06 23° 68° (ENE) 19:54:28 2200.000
PRISM 02 Jul 19:55:08 19:59:22 72° 103° (ESE) 20:03:32 437.425
DOVE 4 02 Jul 20:00:36 20:05:04 36° 71° (ENE) 20:09:20 437.250
CUBESAT XI-V 02 Jul 20:23:44 20:27:16 21° 294° (WNW) 20:30:40 437.345
STRAND 1 02 Jul 20:26:37 20:31:42 60° 288° (WNW) 20:36:45 437.568
DANDE 02 Jul 20:28:42 20:30:47 18° 270° (W) 20:32:39 436.750
CUBEBUG 2 02 Jul 20:29:26 20:31:48 15° 66° (ENE) 20:34:19 437.445
SEEDS 02 Jul 20:35:34 20:39:39 55° 74° (ENE) 20:43:46 437.485
AUBIESAT-1 02 Jul 20:37:41 20:39:40 13° 96° (E) 20:41:56 437.475
ZACube-1 02 Jul 20:41:41 20:43:18 12° 64° (ENE) 20:45:05 437.345
GOMX 1 02 Jul 20:43:22 20:48:31 56° 261° (W) 20:53:21 467.674
AAUSAT CUBESAT 2 02 Jul 20:51:59 20:56:01 57° 74° (ENE) 21:00:07 437.432
Oscar 11 02 Jul 20:52:56 20:56:33 28° 69° (ENE) 21:00:15 145.826/435.025
BRITE-PL 02 Jul 20:57:55 21:02:41 28° 266° (W) 21:07:09 437.365/2234.400
CINEMA 3 02 Jul 21:01:32 21:06:05 69° 75° (ENE) 21:10:26 145.822/145.860
M-CUBED/EXP-1 PRIME 02 Jul 21:08:27 21:12:14 33° 102° (ESE) 21:16:18 437.505
Cosmos 2499 02 Jul 21:16:08 21:22:40 30° 69° (ENE) 21:29:47 435.465 / 435.565
COMPASS 1 02 Jul 21:16:14 21:20:20 62° 259° (W) 21:24:29 437.405
FUNcube-1 02 Jul 21:16:37 21:20:10 28° 70° (ENE) 21:23:45 145.935
HUMSAT D 02 Jul 21:17:23 21:19:06 13° 65° (ENE) 21:21:01 437.325/437.525
CUTE 1.7 + AOD 2 02 Jul 21:19:53 21:23:48 36° 263° (W) 21:27:43 437.475
HO-68 02 Jul 21:21:17 21:28:09 48° 261° (W) 21:35:00 435.675
DELFI C3 02 Jul 21:22:07 21:25:50 38° 72° (ENE) 21:29:35 145.870
UWE-3 02 Jul 21:23:02 21:27:04 43° 73° (ENE) 21:31:04 435.000/436.395/437.385
CANX-2 02 Jul 21:23:08 21:26:53 30° 265° (W) 21:30:38 2200.000
PRISM 02 Jul 21:32:53 21:34:16 11° 298° (WNW) 21:35:26 437.425
GONETS M04 02 Jul 21:36:00 21:44:23 53° 269° (W) 21:52:39
DOVE 4 02 Jul 21:38:50 21:42:53 25° 266° (W) 21:46:42 437.250
50 SAT 02 Jul 21:42:45 21:43:52 11° 65° (ENE) 21:45:09 437.505
VELOX 1 02 Jul 21:46:06 21:48:21 14° 63° (ENE) 21:50:47 145.980
DX 1 02 Jul 22:01:22 22:05:20 35° 70° (ENE) 22:09:21 434.975-435.025
CUBEBUG 2 02 Jul 22:03:57 22:08:11 51° 261° (W) 22:12:19 437.445
AUBIESAT-1 02 Jul 22:10:36 22:14:42 60° 291° (WNW) 22:19:05 437.475
SEEDS 02 Jul 22:14:01 22:15:52 12° 272° (W) 22:17:31 437.485
ZACube-1 02 Jul 22:15:01 22:19:13 62° 259° (WSW) 22:23:23 437.345
ANTELSAT 02 Jul 22:24:59 22:27:26 15° 90° (E) 22:30:07 437.575/2403.000
UKube-1 02 Jul 22:25:02 22:29:18 58° 74° (ENE) 22:33:36 .
Oscar 11 02 Jul 22:29:03 22:32:43 26° 266° (W) 22:36:20 145.826/435.025
AISAT 02 Jul 22:30:20 22:34:30 40° 71° (ENE) 22:38:42 437.250
AAUSAT CUBESAT 2 02 Jul 22:30:28 22:32:04 12° 272° (W) 22:33:27 437.432
TIGRISAT 02 Jul 22:37:42 22:40:52 20° 93° (E) 22:44:10 435.000
CINEMA 3 02 Jul 22:42:21 22:43:47 11° 272° (W) 22:44:55 145.822/145.860
M-CUBED/EXP-1 PRIME 02 Jul 22:43:32 22:46:56 24° 296° (WNW) 22:50:27 437.505
HUMSAT D 02 Jul 22:50:23 22:54:26 57° 260° (W) 22:58:28 437.325/437.525
QB50P1 02 Jul 22:52:43 22:53:56 11° 88° (E) 22:55:25 145.935-145.965
FUNcube-1 02 Jul 22:53:00 22:56:30 24° 266° (W) 22:59:54 145.935
CUBEBUG 1 02 Jul 22:54:38 22:58:44 38° 71° (ENE) 23:02:52 437.445
ESTCUBE 1 02 Jul 22:54:59 22:59:18 46° 72° (ENE) 23:03:40 437.505/2401.250
DELFI C3 02 Jul 22:58:28 23:01:07 16° 269° (W) 23:03:38 145.870
UWE-3 02 Jul 23:01:08 23:03:52 16° 269° (W) 23:06:25 435.000/436.395/437.385
NANOSAT C BR1 02 Jul 23:06:33 23:09:10 16° 91° (E) 23:11:55 145.865
Cosmos 2499 02 Jul 23:08:40 23:16:16 58° 267° (W) 23:24:25 435.465 / 435.565
DUCHIFAT 1 02 Jul 23:13:54 23:16:54 19° 92° (E) 23:19:59 145.980
50 SAT 02 Jul 23:14:17 23:18:03 57° 260° (W) 23:21:51 437.505
UNISAT 6 02 Jul 23:15:46 23:20:02 53° 100° (E) 23:24:25 437.425
POLYITAN 1 02 Jul 23:16:14 23:19:28 22° 93° (E) 23:22:46 437.675
TISAT 1 02 Jul 23:19:59 23:22:09 14° 65° (ENE) 23:24:30 437.305
VELOX 1 02 Jul 23:20:01 23:24:27 62° 259° (W) 23:28:54 145.980
DX 1 02 Jul 23:38:15 23:41:41 22° 267° (W) 23:45:02 434.975-435.025
BUGSAT 1 02 Jul 23:39:29 23:42:45 24° 94° (E) 23:46:03 437.445
QB50P2 02 Jul 23:45:39 23:49:44 46° 99° (E) 23:53:48 145.880/145.840
POPSAT HIP 1 02 Jul 23:46:54 23:50:58 46° 99° (E) 23:55:01 437.405
ANTELSAT 03 Jul 00:00:19 00:04:34 50° 287° (WNW) 00:08:51 437.575/2403.000
UKube-1 03 Jul 00:03:45 00:05:52 13° 271° (W) 00:07:46 .
SPROUT 03 Jul 00:03:59 00:08:14 61° 74° (ENE) 00:12:31 437.525
AISAT 03 Jul 00:07:57 00:11:16 20° 268° (W) 00:14:28 437.250
TIGRISAT 03 Jul 00:13:44 00:17:46 37° 289° (WNW) 00:21:50 435.000
QB50P1 03 Jul 00:26:07 00:30:17 61° 286° (WNW) 00:34:25 145.935-145.965
PCSat 03 Jul 00:27:07 00:31:43 28° 47° (NE) 00:36:22 145.827
BEESAT 03 Jul 00:27:17 00:29:48 15° 62° (ENE) 00:32:31 436.000
CUBEBUG 1 03 Jul 00:31:53 00:35:15 20° 268° (W) 00:38:30 437.445
ESTCUBE 1 03 Jul 00:33:20 00:36:27 18° 269° (W) 00:39:26 437.505/2401.250
NANOSAT C BR1 03 Jul 00:41:16 00:45:15 42° 288° (WNW) 00:49:11 145.865
SWISSCUBE 03 Jul 00:41:23 00:44:57 22° 65° (ENE) 00:48:37 437.505
SO-50 03 Jul 00:42:42 00:45:56 17° 37° (NE) 00:49:15 436.795
ITUPSAT 1 03 Jul 00:45:46 00:49:18 22° 65° (ENE) 00:53:00 437.325
DUCHIFAT 1 03 Jul 00:49:00 00:52:51 35° 289° (WNW) 00:56:39 145.980
POLYITAN 1 03 Jul 00:51:40 00:55:26 32° 290° (WNW) 00:59:09 437.675
TISAT 1 03 Jul 00:53:21 00:57:31 55° 260° (W) 01:01:41 437.305
UNISAT 6 03 Jul 00:53:50 00:56:28 15° 295° (WNW) 00:58:59 437.425
BUGSAT 1 03 Jul 01:14:44 01:18:13 27° 291° (WNW) 01:21:36 437.445
Oscar 19 03 Jul 01:17:51 01:21:09 18° 90° (E) 01:24:38 437.125/150
QB50P2 03 Jul 01:22:38 01:25:17 16° 295° (WNW) 01:27:48 145.880/145.840
POPSAT HIP 1 03 Jul 01:23:52 01:26:30 16° 295° (WNW) 01:29:00 437.405
Cosmos 2491 03 Jul 01:33:57 01:41:06 28° 65° (ENE) 01:48:26 435.465 / 435.565
SPROUT 03 Jul 01:43:00 01:44:48 12° 272° (W) 01:46:21 437.525
RS-15 03 Jul 01:47:56 01:57:16 36° 108° (ESE) 02:07:05 29.354- 29.394
BEESAT 03 Jul 02:02:24 02:07:08 67° 258° (WSW) 02:11:56 436.000
KKS-1 03 Jul 02:10:05 02:13:44 26° 68° (ENE) 02:17:28 437.445
PCSat 03 Jul 02:10:10 02:15:23 48° 246° (WSW) 02:20:33 145.827
YUBILEINY 03 Jul 02:12:08 02:17:14 18° 79° (E) 02:22:51 435.215
SWISSCUBE 03 Jul 02:17:59 02:22:32 43° 261° (W) 02:27:07 437.505
SO-50 03 Jul 02:22:13 02:27:13 89° 249° (WSW) 02:32:06 436.795
ITUPSAT 1 03 Jul 02:22:23 02:26:56 43° 262° (W) 02:31:32 437.325
AIST 1 03 Jul 02:46:18 02:50:25 40° 76° (ENE) 02:54:31
Gurwin Techsat 1B 03 Jul 02:46:53 02:51:45 36° 96° (E) 02:56:39 435.225
JAS-2 03 Jul 02:50:07 02:53:28 15° 87° (E) 02:57:25 435.910
Oscar 19 03 Jul 02:55:55 03:00:56 56° 288° (WNW) 03:05:56 437.125/150
ITAMSAT 1 03 Jul 03:03:24 03:08:27 48° 99° (E) 03:13:29 435.822/435.867
AO-7 03 Jul 03:05:45 03:07:42 11° 83° (E) 03:10:27 29.400- 29.500
STARS 03 Jul 03:05:51 03:10:11 61° 74° (ENE) 03:14:32 437.465
Cosmos 2491 03 Jul 03:30:06 03:38:46 66° 267° (W) 03:47:19 435.465 / 435.565
KKS-1 03 Jul 03:46:19 03:50:17 30° 264° (W) 03:54:13 437.445
MOZHAYETS 4 03 Jul 03:50:47 03:54:44 30° 69° (ENE) 03:58:46
RS-15 03 Jul 03:58:11 04:09:02 66° 310° (NW) 04:20:18 29.354- 29.394
YUBILEINY 03 Jul 04:04:18 04:13:01 89° 278° (W) 04:21:46 435.215
SO-50 03 Jul 04:05:40 04:07:06 11° 253° (WSW) 04:08:13 436.795
AIST 1 03 Jul 04:24:52 04:27:47 17° 273° (W) 04:30:31
Gurwin Techsat 1B 03 Jul 04:27:02 04:31:39 30° 293° (WNW) 04:36:11 435.225
JAS-2 03 Jul 04:32:46 04:39:19 86° 103° (ESE) 04:46:41 435.910
HORYU 2 03 Jul 04:37:07 04:41:33 62° 101° (E) 04:45:59 437.375
ITAMSAT 1 03 Jul 04:43:37 04:47:40 23° 296° (WNW) 04:51:35 435.822/435.867
STARS 03 Jul 04:45:06 04:47:06 12° 271° (W) 04:48:52 437.465
AO-7 03 Jul 04:54:02 05:02:23 66° 104° (ESE) 05:10:40 29.400- 29.500
MOZHAYETS 4 03 Jul 05:28:01 05:31:57 27° 266° (W) 05:35:51
Cosmos 2491 03 Jul 05:31:26 05:34:05 11° 285° (WNW) 05:35:59 435.465 / 435.565
Cosmos 2504 03 Jul 05:37:31 05:44:05 40° 89° (E) 05:50:42 435.465 / 435.565
CUBESAT XI-V 03 Jul 05:49:12 05:53:38 44° 72° (ENE) 05:58:08 437.345
Cubesat XI-IV 03 Jul 06:01:05 06:04:08 16° 89° (E) 06:07:26 437.490
STRAND 1 03 Jul 06:04:49 06:08:59 26° 66° (ENE) 06:13:16 437.568
YUBILEINY 03 Jul 06:05:16 06:11:20 19° 301° (WNW) 06:17:00 435.215
RS-15 03 Jul 06:15:10 06:24:15 27° 340° (NNW) 06:33:29 29.354- 29.394
HORYU 2 03 Jul 06:15:19 06:17:45 14° 297° (WNW) 06:20:01 437.375
JAS-2 03 Jul 06:19:29 06:23:53 19° 298° (WNW) 06:28:19 435.910
PRISM 03 Jul 06:45:18 06:49:22 54° 73° (ENE) 06:53:29 437.425
AO-7 03 Jul 06:47:36 06:54:41 31° 303° (WNW) 07:01:34 29.400- 29.500
CUSAT 1 03 Jul 07:03:11 07:07:10 18° 92° (E) 07:10:51 437.405
CUTE-I 03 Jul 07:05:44 07:11:05 62° 101° (E) 07:16:22 437.470
AUBIESAT-1 03 Jul 07:26:38 07:28:22 14° 60° (ENE) 07:30:15 437.475
CUBESAT XI-V 03 Jul 07:27:50 07:31:19 20° 269° (W) 07:34:41 437.345
Cosmos 2504 03 Jul 07:31:01 07:37:35 36° 289° (WNW) 07:44:02 435.465 / 435.565
Cubesat XI-IV 03 Jul 07:39:28 07:44:50 68° 287° (WNW) 07:50:09 437.490
VERMONT LUNAR 03 Jul 07:40:54 07:42:30 13° 151° (SSE) 07:44:09 437.305
STRAND 1 03 Jul 07:43:11 07:48:01 40° 262° (W) 07:52:51 437.568
BEESAT 3 03 Jul 07:44:16 07:48:15 55° 119° (ESE) 07:52:16 437.485
DANDE 03 Jul 07:53:21 08:00:05 39° 95° (E) 08:05:32 436.750
BEESAT 2 03 Jul 07:54:13 07:58:13 55° 119° (ESE) 08:02:17 435.950
M-CUBED/EXP-1 PRIME 03 Jul 07:57:55 08:00:59 37° 67° (ENE) 08:04:11 437.505
O/OREOS (USA 219) 03 Jul 08:14:21 08:18:48 78° 293° (WNW) 08:23:17 437.305
PRISM 03 Jul 08:23:12 08:25:13 13° 271° (W) 08:27:00 437.425
RS-15 03 Jul 08:32:58 08:41:46 25° 15° (NNE) 08:51:01 29.354- 29.394
GONETS M04 03 Jul 08:41:07 08:48:56 39° 87° (E) 08:56:52
ISS 03 Jul 08:42:28 08:45:33 43° 140° (SE) 08:48:40 145.825
CUSAT 1 03 Jul 08:43:00 08:49:42 66° 281° (W) 08:54:47 437.405
GOMX 1 03 Jul 08:45:21 08:49:17 38° 97° (E) 08:53:10 467.674
CUTE-I 03 Jul 08:46:57 08:50:43 19° 298° (WNW) 08:54:18 437.470
HO-68 03 Jul 08:48:25 08:54:43 34° 95° (E) 09:01:08 435.675
CINEMA 3 03 Jul 08:57:22 08:59:30 14° 90° (E) 09:01:51 145.822/145.860
AUBIESAT-1 03 Jul 08:59:50 09:02:53 34° 257° (WSW) 09:06:02 437.475
COMPASS 1 03 Jul 08:59:53 09:02:58 20° 92° (E) 09:06:10 437.405
BRITE-PL 03 Jul 09:02:06 09:06:30 79° 284° (WNW) 09:10:40 437.365/2234.400
AIST 2 03 Jul 09:02:30 09:06:44 73° 121° (ESE) 09:11:01 435.215
CUTE 1.7 + AOD 2 03 Jul 09:04:25 09:08:20 35° 96° (E) 09:12:17 437.475
CANX-2 03 Jul 09:07:26 09:11:30 42° 98° (E) 09:15:36 2200.000
PHONESAT 2.4 03 Jul 09:13:19 09:15:20 15° 150° (SSE) 09:17:25 2401.200-2431.200
VERMONT LUNAR 03 Jul 09:15:59 09:18:59 44° 165° (SSE) 09:22:00 437.305
BEESAT 3 03 Jul 09:23:39 09:26:33 18° 318° (NW) 09:29:23 437.485
ANTELSAT 03 Jul 09:25:12 09:27:28 15° 65° (ENE) 09:29:55 437.575/2403.000
BEESAT 2 03 Jul 09:33:42 09:36:38 18° 318° (NW) 09:39:31 435.950
M-CUBED/EXP-1 PRIME 03 Jul 09:35:03 09:36:09 11° 265° (W) 09:37:05 437.505
DOVE 4 03 Jul 09:36:33 09:40:44 89° 117° (ESE) 09:44:53 437.250
DANDE 03 Jul 09:36:34 09:43:16 36° 285° (WNW) 09:48:31 436.750
TIGRISAT 03 Jul 09:37:30 09:40:26 19° 67° (ENE) 09:43:29 435.000
QB50P1 03 Jul 09:47:15 09:47:45 10° 62° (ENE) 09:48:29 145.935-145.965
CUBEBUG 2 03 Jul 09:54:33 09:58:13 29° 96° (E) 10:01:58 437.445
SEEDS 03 Jul 09:54:54 09:59:10 77° 285° (WNW) 10:03:25 437.485
Cosmos 2499 03 Jul 09:56:02 10:00:36 20° 83° (E) 10:05:31 435.465 / 435.565
NANOSAT C BR1 03 Jul 10:00:14 10:02:25 14° 65° (ENE) 10:04:48 145.865
ZACube-1 03 Jul 10:03:32 10:06:50 22° 94° (E) 10:10:15 437.345
DUCHIFAT 1 03 Jul 10:07:14 10:09:51 17° 66° (ENE) 10:12:35 145.980
AAUSAT CUBESAT 2 03 Jul 10:09:44 10:13:58 78° 285° (WNW) 10:18:10 437.432
POLYITAN 1 03 Jul 10:10:06 10:13:01 19° 66° (ENE) 10:16:02 437.675
Oscar 11 03 Jul 10:15:04 10:19:20 52° 99° (E) 10:23:35 145.826/435.025
UNISAT 6 03 Jul 10:15:14 10:19:23 48° 73° (ENE) 10:23:30 437.425
ISS 03 Jul 10:19:09 10:22:03 29° 337° (NNW) 10:24:56 145.825
GOMX 1 03 Jul 10:24:16 10:27:12 18° 294° (WNW) 10:29:59 467.674
BUGSAT 1 03 Jul 10:30:12 10:33:13 20° 67° (ENE) 10:36:18 437.445
CINEMA 3 03 Jul 10:33:03 10:37:04 47° 287° (WNW) 10:41:06 145.822/145.860
HUMSAT D 03 Jul 10:34:25 10:37:34 21° 93° (E) 10:40:48 437.325/437.525
COMPASS 1 03 Jul 10:34:53 10:38:45 35° 289° (WNW) 10:42:35 437.405
DELFI C3 03 Jul 10:35:20 10:39:23 62° 101° (E) 10:43:26 145.870
HO-68 03 Jul 10:35:51 10:42:41 48° 293° (WNW) 10:49:26 435.675
GONETS M04 03 Jul 10:37:15 10:45:41 47° 287° (WNW) 10:54:01
QB50P2 03 Jul 10:38:54 10:42:48 37° 71° (ENE) 10:46:45 145.880/145.840
FUNcube-1 03 Jul 10:39:44 10:43:53 56° 100° (E) 10:48:06 145.935
POPSAT HIP 1 03 Jul 10:40:00 10:43:54 37° 71° (ENE) 10:47:50 437.405
CUTE 1.7 + AOD 2 03 Jul 10:40:46 10:44:03 21° 292° (WNW) 10:47:15 437.475
AIST 2 03 Jul 10:43:06 10:45:50 16° 320° (NW) 10:48:27 435.215
CANX-2 03 Jul 10:44:10 10:47:09 18° 293° (WNW) 10:50:01 2200.000
RS-15 03 Jul 10:46:25 10:57:43 54° 45° (NE) 11:09:32 29.354- 29.394
UWE-3 03 Jul 10:48:20 10:52:33 87° 284° (WNW) 10:56:51 435.000/436.395/437.385
PHONESAT 2.4 03 Jul 10:49:35 10:52:53 46° 166° (SSE) 10:56:14 2401.200-2431.200
50 SAT 03 Jul 10:50:39 10:52:53 15° 91° (E) 10:55:17 437.505
VERMONT LUNAR 03 Jul 10:52:39 10:55:46 67° 182° (S) 10:58:55 437.305
ANTELSAT 03 Jul 10:59:41 11:03:54 53° 260° (W) 11:08:05 437.575/2403.000
VELOX 1 03 Jul 11:10:39 11:14:11 23° 94° (E) 11:17:46 145.980
TIGRISAT 03 Jul 11:12:55 11:16:57 39° 262° (W) 11:20:58 435.000
QB50P1 03 Jul 11:18:48 11:23:03 80° 258° (WSW) 11:27:19 145.935-145.965
DX 1 03 Jul 11:24:56 11:29:16 62° 101° (E) 11:33:34 434.975-435.025
CUBEBUG 2 03 Jul 11:31:25 11:34:50 24° 291° (WNW) 11:38:13 437.445
NANOSAT C BR1 03 Jul 11:33:42 11:37:52 54° 260° (W) 11:42:02 145.865
ZACube-1 03 Jul 11:39:31 11:43:15 31° 289° (WNW) 11:46:59 437.345
DUCHIFAT 1 03 Jul 11:41:15 11:45:20 45° 261° (W) 11:49:25 145.980
POLYITAN 1 03 Jul 11:44:39 11:48:40 39° 262° (W) 11:52:39 437.675
Cosmos 2499 03 Jul 11:46:02 11:53:04 69° 281° (W) 12:00:12 435.465 / 435.565
UKube-1 03 Jul 11:48:00 11:52:21 80° 285° (WNW) 11:56:39 .
Oscar 11 03 Jul 11:52:31 11:55:08 15° 295° (WNW) 11:57:37 145.826/435.025
SPROUT 03 Jul 11:53:33 11:53:44 10° 87° (E) 11:54:13 437.525
UNISAT 6 03 Jul 11:53:59 11:56:29 15° 270° (W) 11:58:49 437.425
AISAT 03 Jul 11:56:41 12:01:07 78° 103° (ESE) 12:05:30 437.250
ISS 03 Jul 11:57:14 11:59:13 15° 357° (N) 12:01:12 145.825
BUGSAT 1 03 Jul 12:04:30 12:08:27 37° 262° (W) 12:12:23 437.445
HUMSAT D 03 Jul 12:09:39 12:13:23 32° 289° (WNW) 12:17:05 437.325/437.525
DELFI C3 03 Jul 12:12:24 12:14:00 12° 296° (WNW) 12:15:24 145.870
QB50P2 03 Jul 12:15:45 12:18:51 19° 268° (W) 12:21:50 145.880/145.840
POPSAT HIP 1 03 Jul 12:16:50 12:19:56 19° 268° (W) 12:22:55 437.405
FUNcube-1 03 Jul 12:17:37 12:19:50 14° 295° (WNW) 12:21:53 145.935
CUBEBUG 1 03 Jul 12:18:57 12:23:20 73° 102° (ESE) 12:27:39 437.445
ESTCUBE 1 03 Jul 12:23:44 12:28:19 85° 284° (WNW) 12:32:50 437.505/2401.250
50 SAT 03 Jul 12:24:04 12:27:44 39° 288° (WNW) 12:31:23 437.505
PHONESAT 2.4 03 Jul 12:27:20 12:30:47 69° 182° (S) 12:34:15 2401.200-2431.200
VERMONT LUNAR 03 Jul 12:29:36 12:32:32 34° 198° (SSW) 12:35:27 437.305
Oscar 19 03 Jul 12:34:51 12:39:06 28° 67° (ENE) 12:43:27 437.125/150
TISAT 1 03 Jul 12:38:01 12:41:13 21° 93° (E) 12:44:28 437.305
VELOX 1 03 Jul 12:46:51 12:50:48 32° 291° (WNW) 12:54:42 145.980
ITAMSAT 1 03 Jul 12:47:03 12:48:07 11° 58° (ENE) 12:49:29 435.822/435.867
RS-15 03 Jul 12:59:07 13:10:21 52° 247° (WSW) 13:21:48 29.354- 29.394
DX 1 03 Jul 13:02:49 13:05:03 14° 297° (WNW) 13:07:06 434.975-435.025
SPROUT 03 Jul 13:26:07 13:30:24 70° 286° (WNW) 13:34:38 437.525
ISS 03 Jul 13:33:54 13:36:29 21° 17° (NNE) 13:39:04 145.825
AISAT 03 Jul 13:35:40 13:37:07 11° 298° (WNW) 13:38:21 437.250
Cosmos 2499 03 Jul 13:45:51 13:47:59 11° 305° (NW) 13:49:38 435.465 / 435.565
CUBEBUG 1 03 Jul 13:57:31 13:59:09 12° 298° (WNW) 14:00:34 437.445
BEESAT 03 Jul 14:02:33 14:06:44 30° 95° (E) 14:10:58 436.000
AO-7 03 Jul 14:03:51 14:09:37 22° 52° (NE) 14:15:41 29.400- 29.500
PHONESAT 2.4 03 Jul 14:05:22 14:08:37 37° 199° (SSW) 14:11:53 2401.200-2431.200
Gurwin Techsat 1B 03 Jul 14:08:14 14:13:25 59° 73° (ENE) 14:18:41 435.225
TISAT 1 03 Jul 14:13:18 14:17:03 32° 290° (WNW) 14:20:45 437.305
Oscar 19 03 Jul 14:13:35 14:18:20 37° 263° (W) 14:23:04 437.125/150
YUBILEINY 03 Jul 14:14:06 14:22:26 47° 73° (ENE) 14:30:50 435.215
SWISSCUBE 03 Jul 14:17:39 14:22:17 46° 99° (E) 14:26:54 437.505
ITAMSAT 1 03 Jul 14:21:38 14:26:50 77° 75° (ENE) 14:32:06 435.822/435.867
ITUPSAT 1 03 Jul 14:22:20 14:26:59 46° 99° (E) 14:31:37 437.325
Cosmos 2491 03 Jul 14:36:10 14:43:27 31° 85° (E) 14:50:57 435.465 / 435.565
JAS-2 03 Jul 14:47:08 14:51:43 34° 67° (ENE) 14:56:32 435.910
STARS 03 Jul 14:57:57 14:58:42 11° 88° (E) 14:59:44 437.465
ISS 03 Jul 15:09:58 15:13:13 85° 216° (SW) 15:16:27 145.825
PCSat 03 Jul 15:10:20 15:14:09 20° 107° (ESE) 15:18:09 145.827
AIST 1 03 Jul 15:16:33 15:20:02 24° 89° (E) 15:23:37
Cosmos 2504 03 Jul 15:29:23 15:33:21 15° 60° (ENE) 15:37:54 435.465 / 435.565
HORYU 2 03 Jul 15:35:37 15:39:57 59° 74° (ENE) 15:44:18 437.375
KKS-1 03 Jul 15:36:24 15:40:41 48° 99° (E) 15:44:58 437.445
BEESAT 03 Jul 15:40:21 15:44:33 30° 292° (WNW) 15:48:40 436.000
PHONESAT 2.4 03 Jul 15:45:09 15:46:07 11° 213° (SSW) 15:46:58 2401.200-2431.200
Gurwin Techsat 1B 03 Jul 15:50:16 15:53:53 18° 270° (W) 15:57:19 435.225
AO-7 03 Jul 15:53:04 16:01:25 88° 73° (ENE) 16:09:52 29.400- 29.500
SWISSCUBE 03 Jul 15:56:16 15:59:51 21° 295° (WNW) 16:03:18 437.505
ITUPSAT 1 03 Jul 16:00:59 16:04:34 21° 295° (WNW) 16:08:02 437.325
BEESAT 3 03 Jul 16:02:32 16:06:21 38° 50° (NE) 16:10:07 437.485
ITAMSAT 1 03 Jul 16:04:29 16:07:02 13° 273° (W) 16:09:18 435.822/435.867
YUBILEINY 03 Jul 16:11:13 16:19:10 39° 273° (W) 16:26:59 435.215
BEESAT 2 03 Jul 16:13:02 16:16:54 38° 50° (NE) 16:20:42 435.950
Cosmos 2491 03 Jul 16:31:13 16:39:54 58° 284° (WNW) 16:48:34 435.465 / 435.565
STARS 03 Jul 16:31:21 16:35:44 70° 284° (WNW) 16:40:04 437.465
JAS-2 03 Jul 16:32:30 16:36:59 28° 266° (W) 16:41:30 435.910
SO-50 03 Jul 16:37:25 16:41:22 28° 113° (ESE) 16:45:30 436.795
O/OREOS (USA 219) 03 Jul 16:45:12 16:48:47 23° 56° (NE) 16:52:27 437.305
CUTE-I 03 Jul 16:51:04 16:53:53 15° 60° (ENE) 16:56:57 437.470
PCSat 03 Jul 16:51:51 16:57:10 58° 304° (WNW) 17:02:33 145.827
AIST 1 03 Jul 16:53:42 16:57:35 29° 286° (WNW) 17:01:26
KKS-1 03 Jul 17:14:02 17:16:59 17° 295° (WNW) 17:19:48 437.445
HORYU 2 03 Jul 17:14:55 17:17:03 13° 271° (W) 17:18:58 437.375
Cosmos 2504 03 Jul 17:20:26 17:28:10 79° 81° (E) 17:36:28 435.465 / 435.565
MOZHAYETS 4 03 Jul 17:21:46 17:26:25 68° 101° (E) 17:31:02
Cubesat XI-IV 03 Jul 17:22:59 17:27:26 28° 66° (ENE) 17:32:01 437.490
AIST 2 03 Jul 17:23:57 17:28:06 53° 53° (NE) 17:32:10 435.215
BEESAT 3 03 Jul 17:41:02 17:44:05 20° 247° (WSW) 17:47:00 437.485
CUBESAT XI-V 03 Jul 17:48:28 17:49:06 10° 86° (E) 17:50:03 437.345
AO-7 03 Jul 17:49:37 17:55:25 19° 272° (W) 18:00:48 29.400- 29.500
BEESAT 2 03 Jul 17:51:40 17:54:44 20° 247° (WSW) 17:57:40 435.950
SO-50 03 Jul 18:17:17 18:21:46 39° 311° (NW) 18:26:22 436.795
O/OREOS (USA 219) 03 Jul 18:24:09 18:28:21 37° 254° (WSW) 18:32:31 437.305
